Dewpoint
-3 -3 -3 -4 -5 -4 -2 -3 -5 -6 -7 -7 -7 -7 -6 -5 -5 -4 -3 -2 -4 -6 -5 -4 -4 -6 -6 -7 -6 -5 -5 -5 -2 -2 -4 1 2 2 6 7 8 8 8
-3 -2 -3 -4 -3 -2 -3 -4 -5 -7 -8 -7 -6 -6 -6 -5 -5 -5 -4 -5 -5 -5 -5 -5 -6 -8 -9 -7 -6 -5 -5 -5 -2 2 1 3 0 5 4 3 6 4 5
-3 -2 -3 -3 -2 -1 -2 -3 -6 -7 -6 -6 -6 -6 -6 -7 -7 -6 -7 -9 -8 -8 -9 -10 -12 -12 -12 -11 -11 -10 -9 -9 -9 -2 3 4 5 3 1 -0 5 4 2
-2 -1 0 -0 1 0 -2 -4 -6 -6 -6 -6 -7 -7 -7 -7 -8 -9 -10 -11 -12 -11 -11 -10 -10 -10 -12 -13 -13 -13 -11 -11 -10 -11 -5 1 4 4 4 1 -4 -5 -3
-1 0 1 1 -2 -4 -4 -5 -6 -5 -6 -6 -7 -7 -7 -8 -10 -11 -12 -11 -11 -11 -10 -10 -10 -10 -11 -13 -16 -17 -17 -16 -15 -12 -11 -12 -8 -1 4 3 -2 -7 -4
1 1 -0 -3 -6 -5 -5 -5 -5 -5 -6 -6 -6 -6 -7 -9 -10 -11 -11 -12 -12 -12 -12 -11 -11 -10 -11 -11 -12 -15 -18 -18 -17 -15 -13 -11 -7 -8 1 2 2 -2 -9
-3 -3 -4 -5 -6 -5 -5 -5 -5 -5 -6 -6 -6 -6 -7 -9 -10 -11 -11 -12 -13 -12 -10 -9 -9 -9 -10 -11 -15 -17 -19 -19 -19 -18 -17 -15 -14 -12 -9 -5 -7 -0 -11
-4 -4 -5 -4 -4 -4 -5 -5 -5 -4 -4 -4 -4 -5 -7 -9 -10 -11 -12 -11 -9 -7 -7 -7 -8 -9 -10 -12 -14 -15 -17 -18 -19 -18 -17 -17 -17 -16 -12 -8 -5 -7 -5
-4 -5 -3 -3 -4 -4 -4 -4 -4 -4 -4 -5 -6 -7 -7 -6 -5 -5 -5 -5 -6 -6 -8 -9 -9 -7 -6 -9 -12 -13 -14 -16 -17 -18 -18 -17 -17 -16 -14 -13 -10 -3 1
-2 -1 -3 -4 -3 -3 -3 -3 -3 -3 -5 -6 -6 -6 -5 -5 -5 -5 -5 -5 -5 -4 -5 -5 -6 -6 -6 -6 -7 -8 -10 -13 -16 -18 -18 -18 -18 -17 -16 -14 -13 -9 -4
-2 -3 -3 -3 -3 -4 -4 -3 -2 -3 -4 -4 -5 -5 -5 -5 -5 -5 -5 -5 -6 -6 -6 -5 -6 -6 -6 -6 -7 -7 -10 -13 -15 -16 -17 -17 -17 -18 -18 -17 -12 -10 -11
-3 -4 -4 -4 -4 -5 -4 -3 -4 -5 -6 -8 -10 -12 -12 -13 -17 -20 -19 -17 -16 -10 -8 -7 -5 -5 -5 -6 -7 -8 -9 -11 -13 -14 -14 -15 -15 -16 -17 -16 -15 -18 -19
-4 -4 -4 -4 -4 -5 -5 -5 -6 -7 -8 -9 -12 -17 -20 -20 -20 -19 -19 -17 -13 -10 -9 -6 -5 -5 -5 -6 -8 -7 -8 -9 -11 -14 -17 -17 -11 -13 -13 -12 -13 -15 -17
-3 -3 -4 -5 -6 -7 -8 -8 -9 -11 -13 -16 -21 -22 -22 -23 -24 -24 -24 -24 -25 -18 -9 -6 -6 -6 -7 -8 -9 -13 -14 -14 -15 -16 -15 -14 -12 -11 -9 -8 -12 -14 -15
-7 -7 -9 -10 -12 -13 -13 -13 -16 -20 -22 -21 -21 -22 -22 -21 -19 -20 -21 -23 -23 -24 -19 -10 -9 -7 -8 -7 -10 -15 -16 -15 -13 -14 -15 -15 -15 -15 -13 -10 -12 -13 -14
-11 -12 -13 -14 -15 -18 -20 -21 -20 -19 -18 -17 -15 -17 -17 -17 -17 -16 -17 -20 -21 -22 -18 -15 -12 -11 -11 -12 -12 -15 -15 -15 -14 -13 -15 -16 -17 -16 -14 -11 -10 -11 -13
-13 -14 -16 -19 -20 -17 -16 -16 -15 -14 -13 -13 -14 -13 -13 -14 -14 -16 -16 -17 -18 -18 -18 -16 -15 -14 -12 -10 -11 -14 -15 -16 -14 -14 -14 -16 -17 -16 -15 -14 -11 -10 -11
-16 -18 -16 -14 -15 -13 -12 -12 -12 -12 -12 -11 -11 -12 -12 -15 -17 -16 -15 -17 -17 -16 -16 -16 -17 -19 -13 -11 -12 -13 -14 -13 -15 -15 -14 -13 -17 -18 -15 -13 -12 -11 -12
-19 -19 -16 -13 -13 -12 -13 -15 -17 -16 -14 -14 -14 -15 -15 -15 -15 -15 -15 -15 -14 -14 -13 -13 -13 -15 -14 -11 -12 -12 -14 -13 -14 -16 -16 -17 -15 -19 -16 -12 -12 -11 -12
-21 -21 -21 -18 -17 -18 -21 -22 -22 -19 -18 -17 -16 -15 -15 -15 -15 -15 -14 -13 -12 -13 -12 -12 -12 -13 -11 -11 -12 -14 -14 -11 -11 -13 -15 -14 -12 -16 -16 -12 -12 -11 -13
-22 -25 -24 -22 -21 -21 -19 -17 -16 -16 -15 -15 -14 -14 -13 -13 -12 -12 -12 -12 -12 -12 -11 -11 -11 -11 -12 -12 -14 -16 -12 -9 -9 -10 -12 -13 -12 -12 -13 -10 -9 -11 -11
-24 -25 -21 -19 -19 -19 -17 -16 -15 -15 -14 -13 -12 -12 -11 -11 -11 -11 -11 -11 -10 -10 -10 -10 -10 -10 -11 -11 -12 -14 -14 -9 -8 -8 -8 -10 -11 -11 -11 -11 -11 -8 -8
-22 -22 -20 -19 -18 -17 -15 -14 -13 -12 -12 -11 -11 -11 -11 -10 -10 -10 -10 -10 -10 -10 -10 -10 -10 -10 -10 -10 -10 -12 -12 -10 -9 -9 -10 -9 -9 -9 -10 -10 -11 -10 -8
-21 -19 -18 -16 -16 -14 -13 -12 -11 -11 -10 -10 -10 -10 -10 -9 -9 -10 -9 -9 -9 -9 -8 -8 -9 -9 -9 -9 -9 -9 -10 -10 -9 -9 -8 -8 -8 -8 -9 -10 -12 -11 -9
-18 -16 -15 -13 -13 -12 -11 -11 -10 -10 -10 -10 -9 -9 -9 -9 -9 -9 -9 -8 -8 -8 -8 -7 -7 -7 -7 -8 -8 -7 -7 -6 -6 -6 -6 -7 -7 -8 -9 -9 -9 -8 -8
-15 -14 -13 -12 -11 -10 -10 -10 -10 -10 -10 -9 -9 -8 -9 -9 -9 -8 -8 -9 -9 -8 -8 -8 -8 -8 -7 -7 -7 -8 -8 -7 -7 -7 -7 -7 -7 -7 -8 -8 -8 -8 -8
Wind_Speed
14 12 11 10 9 8 7 4 4 3 3 2 1 1 2 5 8 11 13 15 16 15 14 14 14 14 15 16 18 21 19 19 23 26 24 9 6 6 8 9 5 6 7
17 15 12 12 10 8 7 5 5 4 3 3 2 3 4 6 9 12 14 14 15 14 14 13 13 14 14 14 15 17 21 20 20 23 21 15 10 8 5 10 2 10 8
20 16 14 13 10 8 7 5 4 4 3 2 4 5 6 9 11 12 12 12 12 12 11 11 12 14 15 16 17 17 18 22 18 17 13 10 7 27 6 15 5 9 11
18 17 14 12 10 8 6 5 5 3 1 2 4 6 9 12 14 14 14 12 11 12 12 13 14 16 17 18 19 19 19 19 22 19 15 13 17 11 17 18 22 17 13
20 18 14 10 8 8 7 6 4 2 1 4 6 9 12 14 14 14 13 12 11 12 14 15 17 18 19 20 20 21 20 20 20 20 21 20 20 18 15 28 29 29 22
19 17 13 10 8 9 7 5 3 2 4 7 10 14 14 15 14 15 14 14 14 14 16 17 18 20 21 22 23 24 23 22 21 21 20 20 20 24 22 28 32 33 34
20 17 13 11 10 8 5 3 3 4 8 11 14 16 15 15 15 16 17 18 18 18 19 21 22 24 24 25 25 25 25 24 24 23 23 22 21 22 24 25 32 32 36
17 13 11 10 8 5 3 2 4 7 10 12 14 14 14 15 16 17 18 20 21 23 24 26 27 27 27 27 27 27 27 27 26 26 25 26 25 24 22 23 24 34 33
16 13 11 7 6 5 3 3 6 7 9 11 11 11 12 14 17 19 22 24 26 27 28 30 32 33 32 30 30 30 31 31 30 30 29 28 27 27 26 25 23 21 21
15 12 10 9 7 6 6 7 6 6 7 7 8 11 12 15 18 21 24 27 30 32 33 34 36 34 35 34 33 33 33 34 34 34 34 33 31 30 29 28 26 24 24
14 12 9 5 4 5 6 7 8 10 13 14 14 15 18 21 24 27 30 32 36 38 38 35 34 31 29 30 31 34 34 35 36 36 37 38 34 33 32 30 30 29 27
14 12 8 5 3 2 3 6 9 11 11 14 17 21 27 30 34 36 36 38 38 34 34 34 35 31 30 29 33 36 36 36 37 37 36 37 35 35 32 31 31 31 30
14 11 7 4 1 3 6 9 12 16 19 24 28 31 34 34 31 29 29 29 29 31 32 32 33 34 35 38 36 33 35 35 35 36 36 36 33 34 32 31 32 31 30
11 7 4 2 4 7 11 15 19 23 27 29 31 29 26 25 26 27 29 30 30 30 30 30 32 34 35 34 32 32 32 33 33 33 32 32 31 31 31 31 31 29 29
7 4 3 6 10 15 19 22 25 26 26 26 25 26 26 26 29 32 34 35 35 33 32 30 32 34 33 30 31 34 35 35 33 32 31 31 31 30 29 29 28 26 25
3 2 7 13 17 21 22 22 21 22 23 26 27 28 29 31 33 36 39 38 38 36 33 32 32 31 32 31 32 33 34 33 33 34 34 33 32 31 29 27 25 24 24
2 9 15 18 18 18 19 22 23 26 28 29 31 32 33 36 38 40 39 41 41 39 38 38 37 35 34 33 33 34 34 31 29 31 32 33 33 31 30 27 24 24 24
11 15 17 18 20 21 23 26 28 30 31 32 35 35 37 41 42 40 40 44 42 42 43 42 41 38 37 34 34 37 36 34 30 30 32 31 33 31 29 27 26 27 26
14 17 18 19 21 22 25 29 31 31 31 33 36 39 42 42 43 43 45 46 45 44 44 43 44 39 36 33 33 38 39 37 33 32 32 31 31 32 28 26 28 28 28
15 18 19 21 22 24 27 30 31 32 35 36 38 40 43 43 43 44 47 46 44 43 45 45 44 41 36 34 37 37 35 32 33 32 32 31 27 28 26 23 26 28 31
20 21 22 23 24 25 27 30 31 33 35 37 41 43 43 43 43 43 44 43 43 44 45 43 45 41 38 36 34 33 29 29 30 31 30 29 26 22 22 20 24 29 28
22 22 24 24 24 26 29 32 34 35 36 39 41 43 42 42 41 41 43 43 41 41 43 43 44 40 36 34 34 32 30 25 27 31 31 31 27 26 25 23 24 25 25
22 23 25 28 29 30 31 33 35 36 39 39 41 41 40 39 40 39 39 39 37 36 38 37 37 38 36 37 37 34 32 30 28 29 30 30 30 29 28 26 26 26 27
23 24 27 30 35 34 33 32 35 35 35 37 37 38 38 38 36 37 35 35 36 36 36 35 35 36 37 38 36 38 38 36 32 29 27 27 28 27 28 30 31 30 28
25 26 28 31 34 34 35 33 33 32 34 34 35 36 37 38 40 38 37 35 36 35 37 38 37 36 40 41 37 35 35 35 34 31 31 31 32 32 32 32 31 30 31
26 28 29 32 34 33 33 32 30 32 32 34 35 36 37 40 41 41 43 39 35 34 33 34 35 37 36 36 35 34 33 32 31 31 33 34 34 35 34 33 32 32 31
Wind_Direction
184 179 181 186 190 190 193 189 174 155 138 141 93 26 322 318 325 321 317 316 319 322 322 323 324 324 325 326 326 323 325 327 332 334 333 351 325 4 8 17 47 356 305
183 185 193 194 191 193 192 191 172 153 127 100 82 48 14 351 336 327 320 318 318 318 322 326 333 337 337 337 335 334 332 335 339 338 344 342 342 266 313 11 2 19 9
189 191 191 191 191 192 188 183 168 144 114 66 30 9 355 344 328 318 315 316 320 324 328 334 335 339 339 338 338 334 331 328 334 336 339 336 323 323 320 316 261 307 317
191 189 185 187 195 202 199 181 170 157 121 24 3 355 345 330 320 319 320 319 318 317 322 328 331 332 332 330 329 327 324 321 321 324 320 307 297 311 315 304 301 300 292
191 190 188 193 202 199 189 182 177 188 321 344 344 338 328 318 315 315 312 308 308 310 313 318 321 322 323 324 324 322 321 319 314 314 311 305 305 308 297 305 307 307 309
185 185 187 194 194 186 183 186 205 266 314 327 328 324 319 314 311 309 305 303 304 308 311 313 315 317 317 316 315 315 315 314 311 307 305 304 303 300 304 299 300 303 304
181 184 190 187 183 188 192 211 253 316 329 323 319 321 318 314 312 310 308 308 309 311 313 314 314 314 313 313 311 308 305 305 304 303 301 300 295 293 292 291 294 300 298
180 182 183 183 185 189 198 246 311 325 322 323 323 320 318 318 317 313 310 310 312 314 316 315 314 313 311 310 308 306 305 303 300 297 295 294 295 294 291 288 292 296 297
177 178 174 176 180 188 222 281 310 317 322 327 328 333 335 332 326 321 315 311 308 310 312 310 311 309 305 302 303 304 304 301 299 297 294 292 290 290 290 289 285 284 294
164 166 176 186 204 229 253 267 268 284 299 304 301 300 301 300 300 299 299 299 299 300 303 305 306 301 298 297 300 304 304 302 299 295 291 288 288 286 285 285 283 279 275
160 163 171 181 211 248 248 240 250 267 275 281 281 289 293 294 295 295 295 293 293 295 293 289 291 289 291 295 300 304 302 298 295 293 292 288 286 283 284 284 283 281 278
148 149 152 165 196 200 234 255 268 279 285 288 290 295 302 303 304 305 302 299 299 302 299 295 287 277 279 289 303 299 295 293 291 290 289 286 286 282 280 278 280 283 283
148 153 157 165 217 270 271 275 281 288 296 300 303 305 306 308 311 315 318 317 309 294 297 299 296 288 289 294 293 289 293 292 291 291 290 287 286 283 280 278 280 281 282
155 166 180 247 287 297 298 299 300 303 304 304 305 307 309 310 313 316 316 316 311 309 299 292 292 293 296 294 293 296 294 293 291 291 289 287 285 283 280 281 281 280 280
153 182 257 294 304 304 303 301 300 303 305 304 305 307 307 310 313 315 314 313 311 308 301 302 299 292 293 288 290 293 292 293 292 290 286 283 282 281 280 278 279 281 280
158 283 310 310 310 311 309 307 311 312 308 306 302 303 306 310 312 313 313 313 312 309 302 300 297 296 296 291 289 293 297 299 295 290 286 283 281 279 278 275 275 277 280
295 309 308 309 313 313 309 307 309 312 311 310 307 307 307 308 309 311 311 312 312 310 305 300 296 292 292 291 292 293 299 301 296 293 288 284 282 281 279 273 270 271 274
311 310 311 311 313 314 311 311 310 309 308 304 307 307 307 308 308 308 307 309 308 305 305 303 301 293 288 289 290 292 298 299 295 284 286 286 282 278 277 277 276 269 269
313 310 307 305 306 308 307 305 306 306 306 306 307 307 310 311 310 308 308 308 307 303 303 300 300 299 290 288 290 293 296 297 292 285 276 279 283 278 279 276 272 271 268
315 314 312 308 309 311 312 311 310 308 305 308 310 311 309 309 308 306 305 305 304 300 303 299 298 297 292 289 295 294 293 289 289 289 285 282 282 282 278 272 266 268 267
321 318 314 312 314 315 315 312 312 308 309 309 309 309 309 308 306 305 303 302 300 296 296 293 298 296 289 290 290 292 291 287 286 286 285 283 285 280 277 272 267 263 268
317 316 314 314 315 314 314 312 310 312 312 311 309 309 308 307 305 302 300 299 298 299 298 296 297 297 295 292 294 295 293 284 280 280 282 282 283 285 282 278 269 268 265
312 312 312 311 312 314 318 315 313 314 313 310 308 308 308 306 306 305 302 300 299 296 293 292 290 292 291 289 292 293 291 285 280 277 277 278 281 281 279 276 272 267 260
313 314 314 313 313 316 315 313 314 315 313 311 311 311 311 312 309 307 301 298 296 294 292 290 289 287 285 285 286 288 293 290 287 284 283 280 279 276 274 274 272 265 262
313 314 313 313 313 316 316 319 319 318 315 313 313 314 315 314 314 312 307 299 296 293 292 290 291 291 290 291 292 287 283 282 283 287 284 278 275 276 276 276 273 269 264
315 314 314 316 316 317 317 319 320 321 317 315 316 316 315 316 315 310 308 309 302 298 294 292 291 291 287 288 287 286 283 279 278 276 271 271 273 275 278 279 278 272 269
Height
1539 1541 1543 1544 1545 1546 1547 1548 1548 1548 1548 1548 1549 1549 1548 1548 1548 1546 1545 1543 1542 1540 1538 1535 1533 1531 1528 1525 1522 1519 1517 1515 1510 1505 1501 1499 1497 1495 1493 1491 1490 1489 1490
1537 1540 1542 1543 1544 1546 1547 1548 1548 1548 1548 1548 1548 1548 1548 1547 1546 1545 1544 1542 1540 1538 1537 1534 1532 1529 1527 1525 1523 1520 1516 1514 1511 1506 1501 1496 1496 1494 1493 1492 1490 1489 1488
1535 1538 1540 1542 1544 1546 1547 1547 1548 1548 1548 1548 1547 1547 1547 1547 1546 1544 1543 1541 1539 1538 1536 1534 1532 1529 1527 1524 1522 1520 1517 1513 1511 1510 1508 1503 1498 1495 1491 1491 1488 1487 1486
1534 1537 1539 1541 1543 1545 1546 1547 1547 1548 1548 1547 1547 1546 1546 1545 1544 1542 1541 1539 1538 1537 1535 1533 1531 1528 1526 1524 1521 1519 1516 1514 1511 1508 1507 1506 1503 1498 1489 1486 1487 1485 1484
1532 1535 1538 1540 1542 1544 1545 1546 1547 1547 1547 1547 1546 1545 1544 1543 1542 1540 1539 1539 1538 1536 1533 1531 1529 1526 1524 1522 1519 1517 1515 1512 1510 1507 1503 1501 1499 1498 1494 1483 1480 1480 1479
1531 1535 1538 1540 1541 1543 1544 1545 1545 1546 1546 1546 1545 1544 1543 1542 1540 1539 1538 1537 1535 1533 1531 1529 1526 1524 1522 1519 1516 1514 1512 1509 1507 1505 1503 1499 1496 1492 1490 1485 1479 1476 1472
1531 1534 1536 1538 1540 1542 1543 1544 1545 1545 1545 1544 1543 1542 1541 1539 1538 1536 1535 1533 1532 1530 1527 1525 1523 1521 1518 1515 1512 1510 1508 1505 1502 1501 1498 1496 1493 1490 1487 1483 1477 1473 1469
1531 1533 1536 1538 1540 1541 1542 1543 1543 1543 1542 1541 1540 1539 1538 1537 1536 1534 1533 1531 1528 1526 1524 1521 1518 1516 1514 1511 1508 1505 1503 1500 1498 1495 1493 1490 1488 1486 1484 1480 1477 1468 1464
1529 1532 1535 1537 1539 1540 1541 1541 1541 1541 1540 1539 1538 1537 1536 1535 1534 1532 1530 1527 1525 1522 1519 1516 1513 1511 1508 1505 1502 1499 1496 1493 1491 1489 1486 1484 1482 1480 1477 1475 1474 1471 1465
1528 1531 1533 1535 1537 1538 1539 1539 1538 1538 1537 1536 1535 1534 1533 1531 1529 1527 1524 1522 1518 1516 1512 1510 1507 1503 1501 1498 1495 1492 1490 1486 1484 1481 1478 1476 1475 1472 1470 1468 1467 1465 1462
1527 1530 1532 1534 1535 1535 1535 1534 1535 1535 1534 1532 1531 1530 1529 1527 1524 1521 1518 1514 1510 1508 1504 1501 1498 1495 1492 1491 1489 1486 1482 1479 1476 1474 1471 1468 1467 1464 1463 1460 1458 1456 1455
1527 1529 1530 1532 1532 1532 1532 1532 1532 1532 1531 1530 1528 1526 1523 1520 1517 1513 1509 1506 1501 1498 1495 1492 1489 1487 1484 1482 1480 1478 1476 1472 1468 1465 1462 1458 1458 1456 1454 1452 1449 1448 1446
1525 1527 1529 1530 1530 1531 1531 1531 1530 1529 1527 1525 1522 1518 1515 1512 1509 1505 1501 1498 1494 1491 1489 1486 1483 1480 1477 1475 1471 1469 1466 1463 1460 1456 1453 1450 1449 1446 1446 1444 1441 1440 1438
1525 1526 1527 1528 1528 1529 1529 1528 1526 1523 1521 1518 1515 1512 1509 1506 1503 1499 1496 1492 1488 1483 1480 1477 1474 1471 1468 1466 1463 1460 1457 1454 1451 1448 1444 1442 1440 1438 1438 1436 1434 1432 1431
1524 1525 1526 1526 1526 1525 1524 1523 1521 1518 1515 1512 1509 1506 1503 1500 1497 1493 1489 1484 1480 1476 1472 1468 1464 1461 1459 1456 1455 1452 1448 1444 1441 1439 1436 1433 1432 1430 1429 1428 1426 1425 1423
1521 1523 1523 1522 1522 1520 1518 1517 1515 1512 1510 1507 1503 1501 1497 1493 1489 1485 1480 1476 1471 1467 1463 1459 1456 1452 1450 1448 1445 1443 1439 1436 1432 1429 1427 1424 1423 1421 1421 1420 1419 1418 1416
1520 1520 1521 1519 1518 1517 1515 1512 1510 1507 1504 1500 1496 1493 1489 1485 1481 1476 1471 1466 1462 1457 1453 1450 1446 1443 1440 1438 1436 1434 1430 1427 1424 1421 1418 1415 1413 1412 1411 1411 1410 1410 1410
1517 1517 1516 1514 1513 1511 1508 1506 1503 1499 1495 1492 1489 1485 1480 1475 1470 1466 1461 1456 1452 1447 1443 1438 1435 1432 1429 1428 1426 1423 1420 1417 1415 1412 1409 1407 1405 1403 1403 1402 1401 1401 1401
1513 1512 1511 1509 1507 1505 1502 1498 1494 1491 1487 1484 1480 1476 1472 1466 1461 1455 1451 1446 1441 1436 1432 1428 1424 1421 1417 1417 1415 1413 1409 1406 1403 1401 1399 1398 1396 1394 1395 1394 1392 1392 1392
1511 1508 1506 1504 1502 1499 1495 1491 1487 1483 1479 1476 1471 1467 1462 1456 1451 1447 1441 1436 1432 1426 1422 1417 1413 1410 1407 1406 1404 1402 1399 1396 1393 1391 1389 1388 1387 1386 1386 1386 1384 1383 1382
1505 1503 1500 1498 1496 1493 1490 1485 1481 1476 1473 1468 1462 1457 1452 1447 1442 1436 1431 1427 1421 1415 1410 1406 1401 1399 1397 1395 1393 1392 1390 1387 1384 1382 1380 1378 1379 1378 1377 1378 1377 1375 1376
1499 1498 1494 1491 1490 1488 1484 1478 1473 1469 1463 1457 1452 1447 1442 1437 1433 1428 1421 1417 1412 1405 1399 1395 1390 1388 1385 1384 1383 1381 1379 1378 1377 1374 1372 1370 1370 1370 1369 1369 1369 1369 1369
1495 1493 1489 1485 1483 1480 1476 1470 1464 1459 1453 1448 1443 1438 1432 1427 1423 1418 1413 1407 1402 1397 1391 1386 1381 1377 1375 1373 1372 1371 1369 1368 1366 1364 1363 1362 1361 1360 1360 1360 1360 1360 1361
1490 1487 1483 1479 1474 1471 1467 1463 1456 1450 1445 1440 1435 1429 1424 1418 1414 1410 1405 1398 1393 1388 1383 1378 1373 1369 1365 1363 1362 1360 1358 1356 1355 1354 1354 1354 1352 1351 1351 1350 1350 1351 1352
1484 1481 1477 1472 1467 1462 1457 1453 1449 1444 1438 1433 1426 1421 1416 1410 1404 1399 1395 1390 1385 1381 1375 1370 1366 1360 1355 1353 1352 1350 1348 1346 1345 1345 1343 1342 1341 1340 1340 1340 1341 1341 1343
1477 1473 1469 1464 1459 1454 1449 1446 1442 1438 1432 1424 1418 1414 1408 1402 1396 1389 1382 1380 1375 1370 1366 1362 1358 1352 1348 1345 1342 1340 1338 1336 1336 1334 1332 1331 1331 1330 1330 1330 1330 1330 1332